GEFSGL_850_meantemp_006.txt.gz
Temperature
14 14 14 14 13 13 12 12 12 12 13 13 13 13 13 13 13 13 14 14 14 14 14 13 13 13 13 13 14 14 14 14 14 14 14 13 13 14 13 13 13 14 14
13 13 13 13 13 12 12 12 12 12 12 12 12 12 12 13 12 12 13 13 13 13 13 13 13 13 13 13 14 14 14 14 14 14 13 13 13 13 13 13 13 13 13
13 13 13 13 12 12 12 12 12 12 12 11 11 11 11 11 11 12 12 12 13 13 13 13 13 13 13 13 14 14 14 14 14 13 13 13 13 13 13 12 12 12 12
13 13 13 12 12 12 12 12 12 11 11 11 11 11 11 10 10 11 11 12 12 12 13 13 13 13 13 13 14 14 14 14 13 13 12 13 13 12 12 12 11 11 11
12 12 12 12 12 12 12 11 11 11 11 11 11 11 11 11 10 11 11 11 11 12 12 13 13 13 13 13 13 14 14 14 13 12 12 13 12 12 12 11 11 11 11
11 12 12 12 12 12 11 11 11 11 11 11 10 11 11 10 11 11 11 11 11 11 12 12 13 13 13 13 13 13 14 14 13 12 12 12 12 12 12 11 11 10 9
11 11 11 11 11 11 11 11 11 11 11 10 10 10 10 10 10 10 10 10 11 11 11 12 12 13 13 13 13 13 13 13 13 13 13 12 12 12 11 11 10 10 10
10 10 10 10 10 10 10 10 10 10 10 10 10 10 10 10 10 10 10 10 11 11 11 11 12 12 12 13 13 13 13 13 12 12 12 12 12 11 11 11 10 10 10
8 8 8 8 8 8 8 9 9 9 9 9 9 9 9 9 10 10 10 10 10 10 10 11 11 11 12 13 13 12 12 12 11 11 11 11 11 11 11 11 10 10 10
6 6 6 6 6 6 7 7 7 8 8 8 9 9 9 9 9 9 10 10 10 10 10 10 11 11 12 12 12 12 12 12 11 11 11 11 11 11 11 11 11 11 10
4 4 4 4 5 5 5 5 6 6 7 7 7 7 8 8 8 9 9 9 10 10 10 10 10 11 12 12 12 12 12 12 12 11 11 11 11 10 10 11 11 12 11
3 3 3 4 4 4 4 4 4 5 5 6 6 6 7 8 8 8 9 9 9 9 9 9 10 10 11 12 12 12 12 12 12 11 11 11 11 11 11 11 11 11 12
3 3 3 3 4 4 4 4 4 4 5 5 5 6 6 7 7 8 9 9 9 9 9 9 9 10 10 11 11 11 12 11 11 11 11 11 11 11 11 11 11 11 11
3 3 3 3 3 4 4 4 4 4 4 5 5 5 6 6 7 8 8 9 9 9 9 8 9 9 10 10 10 11 11 11 11 11 11 11 11 11 11 11 11 11 11
3 3 3 3 3 3 4 4 4 4 4 4 5 5 6 7 8 8 9 9 9 9 8 8 8 8 9 9 10 11 11 11 11 11 11 11 11 11 11 11 11 11 11
3 3 3 3 3 3 3 4 4 4 5 5 5 5 6 7 8 8 8 8 8 8 8 7 8 8 9 9 10 10 11 11 11 11 11 11 11 11 11 11 11 11 11
4 4 3 3 3 3 4 4 4 5 5 5 5 6 6 7 8 8 8 7 7 7 7 7 7 8 9 9 9 10 11 11 11 11 11 11 11 11 11 10 10 10 10
4 4 3 4 4 4 4 4 4 5 5 6 6 6 6 7 7 7 7 7 7 6 6 7 7 8 8 9 9 10 11 11 11 11 11 11 11 11 10 10 10 10 9
4 4 4 4 4 4 4 4 5 5 6 6 6 6 6 7 7 7 7 7 6 6 6 7 7 8 8 9 9 10 11 11 11 11 11 11 11 10 10 10 10 10 9
5 5 4 4 4 5 5 5 5 5 6 6 6 6 7 7 7 7 6 6 6 6 6 7 7 8 9 9 10 10 11 11 11 11 11 11 10 10 10 10 10 10 10
6 6 5 5 5 5 5 5 6 6 6 6 6 6 7 7 7 7 6 6 6 6 7 7 8 9 9 10 10 11 11 11 11 11 11 11 11 11 11 11 11 10 10
7 6 6 6 6 5 5 6 6 6 6 6 6 6 6 6 6 6 6 6 7 7 7 8 9 10 10 10 11 11 11 11 11 11 11 11 11 11 11 11 11 11 10
7 7 7 6 6 6 6 6 7 7 7 7 7 7 6 6 6 6 6 7 7 8 8 9 10 11 11 11 11 11 11 11 11 11 11 11 11 11 11 11 11 11 11
7 7 7 7 7 7 7 7 7 7 7 7 7 7 7 6 6 6 7 7 8 9 9 10 11 11 12 12 12 11 11 11 11 11 11 11 11 11 11 11 11 10 10
7 7 7 7 7 6 7 7 7 7 7 7 7 7 7 7 7 7 7 8 9 9 10 11 11 12 12 12 11 11 11 11 11 11 11 11 11 11 11 11 11 11 10
8 8 7 7 6 6 6 6 6 7 7 7 7 7 7 7 7 8 8 9 9 10 11 11 11 11 12 11 11 11 11 11 11 11 11 11 11 11 11 11 11 11 11

GEFSGL_850_meantemp_012.txt.gz
Temperature
13 13 13 13 13 13 13 13 13 12 12 12 12 12 11 12 11 12 11 11 11 12 13 13 14 14 14 14 13 13 13 13 13 13 13 13 13 13 14 14 14 14 15
13 13 12 12 12 12 12 12 12 12 12 12 12 11 11 11 11 11 11 11 11 11 12 12 13 13 13 13 13 13 13 13 13 13 13 12 12 12 12 13 13 13 13
12 12 12 12 12 12 12 12 12 12 12 12 12 11 11 11 11 11 11 11 11 11 11 11 12 12 13 13 13 13 13 13 13 13 13 12 12 12 12 12 12 12 12
11 11 11 11 11 11 11 11 11 11 12 12 11 11 11 11 11 11 10 10 10 10 11 11 11 11 12 13 13 13 13 13 13 13 12 12 12 12 12 12 12 12 12
9 9 9 10 10 10 10 10 11 11 11 11 11 11 11 11 11 11 10 10 10 10 10 10 10 11 11 12 12 13 13 13 13 12 12 12 12 12 12 12 12 11 11
7 7 7 7 8 8 9 9 10 10 10 11 11 11 11 11 11 10 10 10 10 10 10 10 10 10 11 11 12 13 13 13 13 13 12 12 12 12 12 12 12 11 11
5 5 5 6 6 6 7 7 8 9 9 10 10 11 11 10 10 10 10 10 10 10 10 10 10 10 11 11 12 12 13 13 13 13 13 12 12 12 12 12 11 11 12
4 4 4 4 4 4 5 5 6 6 7 8 9 10 10 10 10 10 10 10 10 10 10 10 10 10 10 11 12 12 13 13 13 13 13 13 12 12 12 12 11 11 11
4 4 4 4 4 3 3 4 4 5 6 7 8 9 9 9 9 9 9 9 10 10 10 10 10 10 10 10 11 11 12 12 12 12 12 12 12 12 12 11 11 10 9
3 4 4 3 3 3 3 3 3 4 4 5 6 7 8 8 8 9 9 9 9 10 10 10 10 10 10 10 10 11 11 12 12 12 12 12 12 12 12 12 11 11 10
4 4 4 3 3 3 3 3 3 3 4 4 5 6 6 7 7 8 8 8 9 9 9 10 10 10 9 10 10 10 11 12 12 12 11 11 11 11 11 11 11 11 11
4 4 4 3 3 3 3 3 3 3 3 4 4 5 5 6 6 7 7 7 8 8 9 9 9 9 9 10 10 10 10 10 11 11 11 11 11 10 10 10 10 10 11
4 4 4 3 3 3 3 3 3 3 3 4 4 4 5 5 6 6 6 7 7 8 8 9 9 9 9 9 10 10 10 10 10 11 10 10 10 10 10 10 10 10 10
4 4 4 3 3 3 3 3 3 3 3 3 4 4 4 5 5 5 6 6 7 7 8 8 8 8 8 9 9 9 10 10 11 11 11 10 10 10 10 10 10 10 10
4 4 4 4 4 4 3 3 3 4 4 4 4 4 4 4 5 5 6 6 7 7 8 8 8 8 8 8 9 9 9 10 10 10 11 10 10 10 10 10 10 10 10
5 4 4 4 4 4 4 4 4 4 4 4 4 4 4 4 5 5 6 6 7 7 7 8 8 8 8 8 8 8 9 9 10 11 11 11 10 10 10 10 10 10 10
5 5 5 4 4 4 4 4 4 4 4 4 5 5 5 5 5 6 6 7 7 7 7 7 7 7 7 7 8 8 9 9 10 11 11 11 11 10 10 10 10 10 11
6 5 5 5 4 4 4 4 5 5 5 5 5 5 5 6 6 7 7 7 7 7 7 7 7 7 7 7 7 8 8 9 10 10 11 11 11 11 11 11 11 11 11
6 6 6 5 5 5 5 5 5 5 5 5 5 5 6 6 6 7 7 7 7 7 6 6 6 6 7 7 7 8 8 9 10 10 11 11 11 11 11 11 11 11 10
6 6 6 6 6 5 5 5 5 5 5 5 5 5 6 6 6 6 6 6 6 6 6 6 6 6 7 7 7 8 8 9 9 10 10 11 11 11 11 10 10 10 10
6 6 6 6 6 6 6 6 6 6 6 6 6 6 6 6 6 6 6 6 6 6 6 6 6 6 7 7 7 8 8 9 10 10 10 11 11 10 10 10 10 9 9
7 6 6 6 6 6 6 6 6 6 6 6 6 6 6 6 6 6 6 6 6 6 6 6 6 6 7 7 8 8 9 9 10 10 10 11 11 10 10 10 9 9 9
7 7 7 6 6 6 7 7 7 6 6 6 6 6 6 6 6 6 6 6 6 6 6 6 6 7 7 8 8 9 9 10 10 11 11 11 10 10 10 10 10 9 9
7 7 7 7 6 6 7 7 7 6 6 6 6 6 6 6 6 6 6 6 6 6 7 7 7 7 8 8 9 9 10 11 11 11 11 11 10 10 10 10 10 10 10
7 7 7 7 6 6 6 7 7 6 6 6 6 6 6 6 7 7 7 7 7 7 8 8 8 9 9 9 10 10 10 11 11 11 11 10 10 10 10 10 10 10 10
7 7 7 7 6 6 6 6 6 6 7 6 6 6 7 7 7 7 8 8 9 9 9 10 10 10 10 10 10 11 11 11 11 11 10 10 10 10 10 10 10 10 10

GEFSGL_850_meantemp_018.txt.gz
Temperature
10 10 10 10 10 10 10 10 10 10 10 10 11 11 11 11 11 12 12 12 12 12 12 12 12 13 13 13 14 14 14 15 15 16 15 14 14 14 14 15 15 15 15
9 9 9 8 9 9 9 9 9 9 9 10 10 10 11 11 11 11 11 12 12 12 11 11 12 12 12 13 13 13 14 14 14 15 14 14 13 14 14 14 13 13 14
8 8 8 8 8 8 8 8 8 8 8 9 9 10 10 11 11 11 11 11 11 11 11 11 11 11 11 12 12 13 13 13 14 14 14 14 14 13 14 13 13 12 13
7 7 7 7 7 7 7 7 7 7 7 8 8 9 9 10 10 10 11 11 11 11 11 11 11 11 11 11 11 12 12 13 13 14 14 14 14 13 13 13 12 12 12
6 6 6 6 6 6 6 6 6 6 6 7 7 8 8 9 10 10 10 10 10 10 10 10 10 10 11 10 11 11 12 12 13 13 13 14 14 13 13 12 12 12 12
6 6 6 6 6 6 6 5 5 5 5 5 6 6 7 8 10 10 10 10 10 10 10 10 10 10 10 10 10 10 11 11 12 12 13 14 14 13 13 12 12 12 11
6 6 6 5 5 5 5 5 5 5 5 5 5 5 6 7 8 9 10 10 10 10 10 10 10 10 10 9 10 10 10 10 11 11 12 13 13 13 13 12 12 12 12
6 6 5 5 5 5 5 4 4 4 4 4 4 5 5 6 7 8 9 9 9 10 10 10 10 10 9 9 9 9 10 10 10 11 11 12 13 13 13 13 12 12 12
6 6 5 5 5 5 4 4 4 4 4 4 4 4 5 5 7 8 9 9 9 9 10 10 10 10 10 9 9 9 10 10 10 10 11 12 12 12 13 12 11 11 11
6 5 5 5 5 4 4 4 4 4 4 4 4 4 4 5 6 7 8 8 9 9 9 10 10 10 10 10 10 9 10 10 10 10 11 12 12 12 12 12 12 11 11
5 5 5 5 5 5 5 4 4 4 4 4 4 4 4 5 6 7 8 8 9 9 10 10 10 10 10 10 10 10 10 10 10 10 11 11 12 12 12 12 11 12 12
5 5 5 5 5 5 5 5 4 4 4 4 4 4 4 5 5 6 7 8 8 9 10 10 10 10 10 10 10 10 10 10 10 10 10 11 11 11 12 11 11 11 12
5 5 5 5 5 5 5 5 5 4 4 4 4 4 5 5 5 6 6 7 8 8 9 9 9 9 9 9 10 10 10 10 10 10 10 11 11 11 11 11 11 11 11
5 5 5 5 5 5 5 5 5 5 4 4 4 4 5 5 5 5 6 7 7 8 8 8 9 9 9 9 9 9 9 10 10 10 10 11 11 11 10 10 10 10 9
5 5 5 5 6 6 6 6 5 5 4 4 4 4 5 5 5 5 6 6 7 7 8 8 8 8 8 9 9 9 9 9 10 10 10 10 10 10 10 10 10 9 9
5 5 5 6 6 6 6 6 6 5 5 5 5 5 4 4 5 5 5 6 6 7 7 8 8 8 9 9 9 9 9 9 10 10 10 10 10 10 10 9 9 9 9
6 5 5 6 6 6 6 6 6 6 5 5 5 5 5 5 5 5 5 6 6 6 6 7 8 8 9 9 9 9 9 9 9 9 10 10 10 10 9 9 9 9 9
6 6 6 6 6 6 7 7 6 6 6 5 5 5 5 5 5 5 5 5 5 6 6 7 7 8 8 9 9 9 9 9 9 9 9 10 10 9 9 9 9 9 10
6 6 6 6 7 7 7 7 7 6 6 6 5 5 5 5 6 6 6 5 6 6 6 7 7 8 8 9 9 8 8 9 9 9 9 9 9 9 9 9 9 10 10
6 6 6 6 7 7 7 7 7 7 6 6 6 6 5 5 6 6 6 6 6 6 6 7 7 8 8 8 8 8 8 8 8 9 9 9 9 9 9 9 10 10 11
6 6 6 7 7 7 8 7 7 7 7 6 6 6 6 6 6 6 6 6 6 6 7 7 7 8 8 8 8 8 8 8 8 9 9 9 9 9 9 10 10 10 11
6 6 7 7 7 8 8 7 7 7 7 7 7 6 7 6 7 7 7 7 7 7 7 7 7 8 8 8 8 8 8 8 8 8 9 9 9 9 10 10 10 11 11
6 6 7 7 7 8 8 8 7 7 7 7 7 7 7 7 7 7 7 7 7 7 7 7 7 7 7 7 7 7 8 8 8 8 9 9 9 10 10 10 11 11 11
6 6 7 7 7 8 8 8 8 8 7 7 7 7 7 7 7 7 7 7 7 7 7 7 7 7 7 7 7 7 7 8 8 9 9 10 10 10 10 10 11 11 11
6 6 6 7 7 7 8 8 8 8 7 7 7 7 7 7 7 7 7 7 7 7 7 7 7 7 7 7 7 7 7 8 8 9 10 10 10 10 10 10 10 10 10
6 6 6 6 7 7 7 8 8 8 8 7 7 7 7 7 7 7 7 7 7 7 7 7 7 7 7 7 7 8 8 8 9 9 10 10 10 10 10 10 10 10 10

GEFSGL_850_meantemp_024.txt.gz
Temperature
12 11 10 10 9 9 9 9 9 9 9 9 9 9 10 10 11 11 11 12 12 12 12 13 13 13 14 14 15 15 16 16 16 16 16 16 16 16 15 15 15 15 16
11 10 10 9 9 9 8 8 8 8 8 8 8 8 9 9 10 10 11 11 11 12 12 12 12 13 13 14 14 15 15 16 16 16 16 15 15 15 15 15 14 14 15
10 10 9 9 9 8 8 8 8 8 8 8 8 8 8 8 9 9 10 10 11 11 11 12 12 12 12 13 13 14 14 15 15 15 16 15 15 15 14 14 14 14 14
10 9 9 9 8 8 8 8 8 7 7 7 7 7 7 7 8 8 9 9 10 11 11 11 11 12 12 12 12 13 13 14 14 15 15 15 15 14 14 14 13 13 13
10 9 9 8 8 8 8 8 7 7 7 7 7 7 7 7 7 8 8 8 9 10 10 11 11 11 11 12 12 12 13 13 13 14 14 15 15 14 14 14 13 12 12
9 9 9 8 8 8 8 8 7 7 7 7 7 6 6 6 7 7 7 8 8 9 9 10 10 11 11 11 11 12 12 12 12 13 14 14 15 15 14 14 13 12 11
9 9 9 8 8 8 8 7 7 7 7 7 6 6 6 6 6 6 7 7 7 8 9 9 10 10 11 11 11 11 11 11 11 12 13 14 14 14 14 13 13 13 12
9 9 8 8 8 8 7 7 7 7 7 7 6 6 6 6 6 6 6 6 7 7 8 9 9 10 10 11 11 11 11 11 11 11 12 13 14 14 14 14 13 12 12
9 8 8 8 7 7 7 7 7 7 7 7 6 6 6 6 6 6 6 6 6 7 8 8 9 9 10 10 10 10 10 10 10 11 11 12 13 13 14 13 12 12 11
8 8 8 7 7 7 7 7 7 7 7 7 6 6 6 6 6 6 6 6 6 6 7 8 8 9 9 10 10 10 10 10 10 10 11 11 11 12 13 13 13 13 12
8 8 7 7 7 7 7 7 7 7 7 7 7 6 6 6 6 6 6 6 6 6 7 8 8 9 9 10 10 10 10 10 10 10 10 11 11 11 12 13 12 13 13
8 8 7 7 7 7 7 7 7 7 7 7 7 6 6 6 6 6 6 6 6 6 7 8 8 9 9 9 10 10 10 10 10 10 10 10 11 11 12 12 12 12 12
7 7 7 7 7 7 7 7 7 7 7 7 6 6 6 6 6 6 6 6 6 7 7 8 8 9 9 9 10 10 10 10 10 10 10 10 11 11 11 12 12 11 11
7 7 7 7 7 7 7 7 7 7 7 7 6 6 6 6 6 6 6 6 7 7 7 7 8 8 9 9 9 10 10 10 10 10 10 10 10 11 11 11 11 11 11
6 6 7 6 6 7 7 7 8 8 7 7 6 6 5 6 6 6 6 6 6 7 7 7 8 8 9 9 9 10 10 10 10 10 10 10 10 10 10 11 11 11 11
6 6 6 6 6 7 7 8 8 8 7 7 7 6 6 6 6 6 6 6 6 7 7 7 8 9 9 9 9 9 10 10 10 10 10 10 10 10 10 10 11 11 11
6 6 6 6 7 7 7 8 8 8 8 7 7 6 6 6 6 6 6 6 6 7 7 8 8 9 9 10 10 10 10 10 10 10 10 10 10 10 10 10 10 10 11
6 6 6 6 7 7 8 8 8 8 8 7 7 7 7 6 6 6 6 6 6 7 7 7 8 9 9 10 10 10 10 10 10 10 10 10 10 10 10 10 10 10 10
6 7 7 7 7 8 8 8 9 8 8 8 7 7 7 7 6 6 6 6 6 7 7 7 8 8 9 9 10 10 10 10 10 10 10 10 10 10 10 10 10 10 10
7 7 7 7 7 8 8 9 9 9 9 8 8 8 7 7 7 7 7 7 7 7 8 8 8 8 9 9 9 9 10 10 10 10 10 10 10 10 10 10 10 9 9
7 7 7 7 8 8 9 9 9 9 9 9 8 8 8 8 7 7 7 7 7 8 8 8 8 9 9 9 9 9 9 10 10 9 10 10 10 9 10 9 9 9 9
7 7 7 7 8 8 9 9 9 9 9 9 9 9 8 8 8 8 8 8 8 8 8 8 8 9 9 9 9 9 9 9 9 9 9 9 9 9 9 9 9 9 9
7 7 7 7 8 8 9 9 9 9 9 9 9 9 8 8 8 8 8 8 8 8 8 8 9 9 9 9 9 9 9 9 9 9 9 9 9 9 9 9 9 9 9
7 7 7 7 8 8 8 9 9 9 9 9 9 8 8 8 8 8 8 8 8 8 8 8 9 9 9 9 9 9 9 9 9 9 9 9 9 9 9 9 9 9 10
6 7 7 7 7 8 8 9 9 9 9 9 9 8 8 8 8 8 8 8 8 8 8 8 8 8 9 9 9 9 9 9 9 9 9 9 9 9 9 9 9 9 10
6 7 7 7 7 7 8 9 9 9 9 9 9 9 8 8 8 8 8 8 8 8 8 8 8 8 8 8 8 8 9 8 9 9 9 9 9 9 9 9 9 9 10

GEFSGL_850_meantemp_030.txt.gz
Temperature
12 12 11 11 10 10 9 9 9 9 8 8 8 9 9 9 9 9 10 10 10 10 11 11 11 11 12 12 13 13 13 13 14 15 16 16 16 16 16 16 16 16 16
12 11 11 10 10 10 9 9 9 8 8 8 8 8 8 8 8 9 9 9 9 9 10 10 10 11 11 11 12 12 13 13 13 14 15 16 16 16 16 16 16 16 16
12 11 11 10 10 10 9 9 9 8 8 8 8 8 8 8 8 8 8 8 9 9 9 9 10 10 10 11 11 11 12 12 13 13 14 15 15 15 15 15 15 15 15
12 11 11 10 10 9 9 9 8 8 8 8 8 8 8 8 7 7 8 8 8 8 8 9 9 9 10 10 11 11 11 12 12 13 13 14 14 15 15 15 15 14 15
11 11 11 10 10 9 9 9 8 8 8 8 7 7 7 7 7 7 7 7 7 7 8 8 8 9 9 10 10 10 11 11 11 12 12 13 14 14 14 14 14 14 14
11 11 10 10 9 9 9 8 8 8 7 7 7 7 7 7 7 7 6 6 6 7 7 7 8 8 8 9 9 10 10 10 11 11 12 12 13 14 14 14 14 13 13
11 10 10 9 9 9 8 8 7 7 7 7 7 7 7 7 7 7 7 6 6 6 7 7 7 7 8 8 9 9 10 10 10 11 11 12 13 13 14 13 14 14 14
10 10 9 9 8 8 8 8 7 7 7 7 7 7 7 7 7 7 7 6 6 6 6 6 6 7 7 7 8 9 9 10 10 11 11 11 12 12 13 14 14 13 13
10 9 9 8 8 8 7 7 7 7 7 7 7 7 7 7 7 7 7 6 6 6 6 6 6 6 7 7 7 8 9 9 10 10 10 11 11 12 12 12 12 12 12
9 9 8 8 7 7 7 7 7 7 7 7 8 8 7 7 7 7 6 6 6 6 6 6 6 6 6 7 7 8 8 9 10 10 10 10 11 11 12 12 13 13 12
9 8 8 7 7 7 7 7 7 7 7 7 7 8 7 7 7 6 6 6 6 6 6 6 6 6 6 6 7 7 8 9 9 9 10 10 10 11 11 12 12 13 13
8 8 8 7 7 7 7 7 7 7 7 7 7 7 7 7 6 6 6 6 6 6 6 6 6 6 6 6 7 8 8 8 9 9 9 9 10 10 11 11 12 12 13
8 8 7 7 7 7 7 7 7 7 7 7 7 7 7 6 6 6 6 6 6 6 6 6 6 6 6 6 7 7 8 8 8 9 9 9 10 10 11 11 11 11 12
8 7 7 7 7 7 7 7 7 7 7 7 7 7 7 6 6 6 6 6 6 6 6 6 6 6 6 7 7 7 8 8 9 9 9 9 9 10 10 10 11 11 11
8 7 7 7 7 7 7 7 8 8 8 7 7 7 7 6 6 6 6 6 6 6 6 6 6 6 6 7 7 7 8 8 8 9 9 9 9 9 10 10 10 11 11
8 7 7 7 7 7 7 8 9 8 8 8 8 7 7 6 6 6 6 6 6 6 6 6 6 6 6 7 7 7 8 8 8 9 9 9 9 9 9 10 10 10 11
7 7 7 7 7 7 7 7 8 9 9 8 8 8 7 7 6 6 6 6 6 6 6 6 7 7 7 7 8 8 8 8 9 9 9 9 9 9 9 10 10 10 10
7 7 7 7 7 7 7 8 8 8 8 9 8 8 8 7 7 6 6 6 6 6 6 7 7 7 8 8 8 8 9 9 9 9 9 9 9 9 9 9 10 10 10
7 7 7 7 7 7 7 8 8 8 8 8 8 8 8 7 7 7 6 6 6 7 7 7 7 8 8 8 9 9 9 9 9 9 9 9 9 9 9 9 9 10 10
8 7 7 7 7 7 7 8 8 8 8 8 8 8 8 8 8 7 7 7 7 7 7 7 8 8 8 8 9 9 9 9 9 10 10 10 9 9 9 9 9 9 9
8 7 7 7 7 7 7 8 8 8 8 8 8 8 8 8 8 8 7 7 7 7 7 8 8 8 8 9 9 9 9 9 9 10 10 10 10 9 9 9 9 9 9
8 7 7 7 7 7 7 8 8 8 8 8 8 8 8 8 8 8 8 8 8 8 8 8 8 8 8 9 9 9 9 9 9 10 10 10 10 9 9 9 9 9 9
8 7 7 7 7 7 7 8 8 8 8 8 8 8 8 8 8 8 8 8 8 8 8 8 8 8 8 8 9 9 9 9 9 9 10 10 10 9 9 9 9 9 9
8 7 7 7 7 7 7 8 8 8 8 8 8 8 8 8 8 8 8 8 8 8 8 8 8 8 8 8 9 9 9 9 9 9 9 9 9 9 9 9 9 9 9
7 7 7 6 6 7 7 7 8 8 8 8 8 8 8 8 8 8 8 8 8 8 8 8 8 8 8 8 9 9 9 9 9 9 9 9 9 9 9 9 9 9 9
7 6 6 6 6 6 7 7 8 8 8 8 8 8 8 8 8 8 7 7 7 7 7 8 8 8 8 8 8 9 9 9 9 9 9 9 9 9 9 9 9 9 9

GEFSGL_850_meantemp_036.txt.gz
Temperature
13 12 12 11 11 11 10 10 10 10 9 9 9 9 9 9 9 8 8 8 8 8 8 9 9 9 10 10 11 11 11 11 11 12 13 14 15 15 16 16 16 16 16
13 12 12 11 11 11 10 10 10 9 9 9 9 9 9 9 8 8 8 8 8 8 8 8 8 9 9 10 10 10 11 11 11 12 12 13 14 15 15 15 15 15 15
12 12 11 11 11 10 10 10 9 9 9 9 9 8 8 8 8 8 8 8 8 8 8 8 8 8 8 9 9 10 10 10 11 11 12 12 13 14 14 15 15 15 15
12 12 11 11 10 10 10 9 9 9 9 9 8 8 8 8 8 8 8 8 8 8 8 8 8 7 8 8 8 9 9 10 10 10 11 12 12 12 13 13 14 14 15
12 11 11 10 10 10 9 9 9 9 8 8 8 8 8 8 8 8 8 8 8 8 8 8 8 7 7 7 8 8 9 9 10 10 10 11 11 12 12 13 13 13 13
11 11 10 10 10 9 9 9 9 9 8 8 8 7 7 7 8 7 7 7 7 7 8 8 8 7 7 7 7 7 8 8 9 9 10 10 11 11 12 12 12 12 12
11 11 10 10 9 9 9 8 8 8 8 8 7 7 7 8 8 7 7 7 7 7 7 8 8 8 7 7 7 7 7 8 8 9 9 10 11 11 11 12 12 12 12
11 10 10 9 9 9 8 8 8 8 7 7 7 7 7 8 8 7 7 7 7 7 7 7 7 7 7 7 7 6 7 7 8 8 9 10 10 11 11 11 12 12 12
11 10 9 9 8 8 8 8 7 7 7 7 7 7 7 8 8 7 7 7 7 7 7 7 7 7 7 7 6 6 6 7 7 8 8 9 10 10 11 11 11 11 11
11 10 9 8 8 8 8 7 7 7 7 7 7 7 7 8 8 7 7 7 7 7 6 6 6 6 6 6 6 6 6 6 7 7 8 9 9 10 10 11 11 11 11
11 10 9 8 8 8 7 7 7 7 7 7 8 8 8 7 7 7 7 6 6 6 6 6 6 6 6 6 6 5 6 6 7 7 8 8 9 10 10 10 11 11 11
11 10 9 9 8 7 7 7 7 7 7 8 8 8 8 8 7 7 6 6 6 6 6 6 6 6 6 6 5 5 5 6 6 6 7 8 9 9 10 10 11 11 11
11 10 10 9 8 7 7 7 7 7 7 8 8 8 8 8 7 7 6 6 6 5 6 6 6 5 5 5 5 5 5 5 6 6 7 8 9 9 10 10 10 10 10
11 10 10 9 8 8 7 7 7 7 8 8 8 8 8 8 7 7 7 6 6 6 5 5 5 5 5 5 5 5 5 5 6 6 7 8 8 9 9 9 10 10 10
11 10 9 9 8 8 8 7 7 8 7 7 8 8 8 8 7 7 7 6 6 6 5 5 5 5 5 5 5 5 5 5 6 6 7 8 8 9 9 9 9 9 10
11 10 9 9 8 8 8 8 8 8 8 8 8 8 8 8 7 7 7 6 6 6 5 5 5 5 5 5 5 5 5 5 6 6 7 7 8 8 9 9 9 9 9
11 10 9 9 8 8 7 7 8 9 9 8 8 8 8 8 8 7 7 6 6 6 6 6 6 5 5 5 5 5 6 6 6 7 7 7 8 8 9 9 9 9 9
11 10 9 8 8 7 7 7 7 8 8 9 9 8 8 8 8 7 7 7 7 6 6 6 6 6 6 6 6 6 6 6 6 7 7 7 8 8 8 9 9 9 9
11 10 9 8 8 7 7 7 7 7 8 8 8 8 8 8 8 8 7 7 7 7 6 6 6 6 6 6 6 6 6 6 7 7 7 7 8 8 8 8 9 9 9
10 9 9 8 8 7 7 7 7 7 8 8 8 8 8 8 8 8 7 7 7 7 7 7 7 7 7 7 7 7 7 7 7 7 7 8 8 8 8 8 9 9 9
10 9 8 8 7 7 7 7 7 7 8 8 8 8 8 8 8 7 7 7 7 7 7 7 7 7 7 7 7 7 7 7 8 8 8 8 8 8 8 9 9 9 9
10 9 8 8 7 7 7 7 7 7 7 8 8 8 8 8 8 7 7 7 7 7 7 7 7 8 8 8 8 8 8 8 8 8 8 8 8 9 9 9 8 9 9
9 9 8 7 7 7 7 7 7 7 7 8 8 8 8 8 8 7 7 7 7 7 7 7 7 8 8 8 8 8 8 8 8 8 8 9 9 9 9 9 9 9 9
9 8 8 7 7 6 6 6 7 7 7 7 8 8 8 8 7 7 7 7 7 7 7 7 7 8 8 8 8 8 8 8 8 9 9 9 9 9 9 9 9 9 9
8 8 7 7 6 6 6 6 6 6 7 7 7 7 8 7 7 7 7 7 7 7 7 7 7 7 8 8 8 8 8 8 9 9 9 9 9 9 9 9 9 8 8
7 7 7 6 6 6 6 6 6 6 7 7 7 7 7 7 7 7 7 7 7 7 7 7 7 7 7 8 8 8 8 8 9 9 9 9 9 9 9 9 8 8 8